Torna al catalogo

FENGYUN 1C DEB

AttivoPO
NORAD 30090·DEBRIS·🇨🇳 China

Lanciato May 10, 1999 da Taiyuan Satellite Launch Center

Loading…

Prossimi Passaggi (prossime 24 ore)

TLE

AggiornatoSource: Space-Track

Epoca: Sep 14, 2026, 19:38 UTC

1 30090U 99025QT  26257.81870007  .00000452  00000-0  19296-3 0  9991
2 30090  99.4108  97.8901 0057740  42.0351 331.4610 14.29544294 22137

Traccia FENGYUN 1C DEB in tempo reale con AllMySat

Download on the App Store